This is the latest recevied weather packets stored in our database for station/object HS2XQB-3. If no packets are shown the sender has not sent any weather packets the latest 10 day(s).
| Time | Temp. | Humidity | Pressure | Rain* | Wind** | Luminosity | Snow |
|---|---|---|---|---|---|---|---|
| 1788223772 | 30.56° C | 79% | 1006 hPa | - | - | 0 W/m² | - |
| 1788221950 | 30° C | 79% | 1005 hPa | - | - | 0 W/m² | - |
| 1788220128 | 29.44° C | 81% | 1005 hPa | - | - | 0 W/m² | - |
| 1788218306 | 29.44° C | 82% | 1005 hPa | - | - | 0 W/m² | - |
| 1788216484 | 29.44° C | 86% | 1005 hPa | - | - | 0 W/m² | - |
| 1788214662 | 29.44° C | 79% | 1005 hPa | - | - | 0 W/m² | - |
| 1788212840 | 28.89° C | 76% | 1005 hPa | - | - | 0 W/m² | - |
| 1788211018 | 28.89° C | 76% | 1005 hPa | - | - | 0 W/m² | - |
| 1788209196 | 28.89° C | 75% | 1005 hPa | - | - | 0 W/m² | - |
| 1788207374 | 28.89° C | 74% | 1004 hPa | - | - | 0 W/m² | - |
| 1788205552 | 28.33° C | 72% | 1005 hPa | - | - | 0 W/m² | - |
| 1788203730 | 28.33° C | 72% | 1005 hPa | - | - | 0 W/m² | - |
| 1788201908 | 27.78° C | 70% | 1005 hPa | - | - | 0 W/m² | - |
| 1788200086 | 27.22° C | 66% | 1005 hPa | - | - | 0 W/m² | - |
| 1788198264 | 26.67° C | 62% | 1006 hPa | - | - | 0 W/m² | - |
| 1788196442 | 24.44° C | 55% | 1006 hPa | - | - | 0 W/m² | - |
| 1788194620 | 23.89° C | 48% | 1006 hPa | - | - | 0 W/m² | - |
| 1788192798 | 23.33° C | 50% | 1006 hPa | - | - | 0 W/m² | - |
| 1788190975 | 22.78° C | 47% | 1007 hPa | - | - | 0 W/m² | - |
| 1788189153 | 21.67° C | 44% | 1007 hPa | - | - | 0 W/m² | - |
| 1788187331 | 21.11° C | 42% | 1006 hPa | - | - | 0 W/m² | - |
| 1788185509 | 21.67° C | 40% | 1006 hPa | - | - | 0 W/m² | - |
| 1788183687 | 21.67° C | 40% | 1005 hPa | - | - | 0 W/m² | - |
| 1788181865 | 22.22° C | 40% | 1005 hPa | - | - | 0 W/m² | - |
| 1788180044 | 22.22° C | 41% | 1005 hPa | - | - | 0 W/m² | - |
* Rain since midnight (hover to see other rain measurements)
** Current wind speed in m/s (hover to see current wind gust speed)